This is the latest recevied weather packets stored in our database for station/object WX0ABE-13. If no packets are shown the sender has not sent any weather packets the latest 10 day(s).
| Time | Temp. | Humidity | Pressure | Rain* | Wind** | Luminosity | Snow |
|---|---|---|---|---|---|---|---|
| 1788318023 | 23.33° C | 53% | 1015.3 hPa | 0 mm | - | 0 W/m² | - |
| 1788317722 | 23.89° C | 52% | 1015.4 hPa | 0 mm | - | 0 W/m² | - |
| 1788317418 | 23.89° C | 52% | 1015 hPa | 0 mm | - | 0 W/m² | - |
| 1788317114 | 23.33° C | 55% | 1015.3 hPa | 0 mm | - | 0 W/m² | - |
| 1788316814 | 23.89° C | 57% | 1015.4 hPa | 0 mm | - | 0 W/m² | - |
| 1788316509 | 23.89° C | 56% | 1015.2 hPa | 0 mm | - | 0 W/m² | - |
| 1788316209 | 23.33° C | 55% | 1014.9 hPa | 0 mm | - | 0 W/m² | - |
| 1788315904 | 23.33° C | 56% | 1014.9 hPa | 0 mm | - | 0 W/m² | - |
| 1788315600 | 23.89° C | 56% | 1014.9 hPa | 0 mm | - | 0 W/m² | - |
| 1788315295 | 23.89° C | 54% | 1014.9 hPa | 0 mm | - | 0 W/m² | - |
| 1788314989 | 23.89° C | 53% | 1014.7 hPa | 0 mm | - | 0 W/m² | - |
| 1788314686 | 24.44° C | 54% | 1014.9 hPa | 0 mm | - | 0 W/m² | - |
| 1788314381 | 25° C | 52% | 1014.9 hPa | 0 mm | - | 0 W/m² | - |
| 1788314077 | 25.56° C | 51% | 1014.8 hPa | 0 mm | - | 0 W/m² | - |
| 1788313772 | 25.56° C | 48% | 1014.5 hPa | 0 mm | - | 0 W/m² | - |
| 1788313469 | 25.56° C | 49% | 1014.5 hPa | 0 mm | - | 0 W/m² | - |
| 1788313168 | 25.56° C | 49% | 1014.6 hPa | 0 mm | - | 0 W/m² | - |
| 1788312864 | 25.56° C | 48% | 1014.6 hPa | 0 mm | - | 1 W/m² | - |
| 1788312559 | 26.11° C | 46% | 1014.5 hPa | 0 mm | - | 2 W/m² | - |
| 1788312254 | 26.67° C | 46% | 1014.7 hPa | 0 mm | - | 3 W/m² | - |
| 1788311950 | 26.67° C | 43% | 1014.7 hPa | 0 mm | - | 5 W/m² | - |
| 1788311645 | 27.78° C | 42% | 1014.6 hPa | 0 mm | - | 7 W/m² | - |
| 1788311344 | 28.33° C | 40% | 1014.6 hPa | 0 mm | - | 9 W/m² | - |
| 1788311039 | 28.89° C | 37% | 1014.6 hPa | 0 mm | - | 11 W/m² | - |
| 1788310739 | 28.89° C | 36% | 1014.6 hPa | 0 mm | - | 14 W/m² | - |
* Rain latest hour (hover to see other rain measurements)
** Current wind speed in m/s (hover to see current wind gust speed)